Tracking 31027 objects as of 19-Jul-2025
HD Live streaming from Space Station
objects crossing your sky now

STARLINK-6245

Track STARLINK-6245 now!
10-day predictions
STARLINK-6245 is classified as:


NORAD ID: 57079
Int'l Code: 2023-088AH
Perigee: 565.5 km
Apogee: 566.9 km
Inclination: 43.0 °
Period: 95.8 minutes
Semi major axis: 6937 km
RCS: Unknown
Launch date: June 22, 2023
Source: United States (US)
Launch site: AIR FORCE WESTERN TEST RANGE (AFWTR)
Your satellite tracking list
COSMOS 1656
Track 1 satellite(s)




NASA's NSSDC Master Catalog

Two Line Element Set (TLE):
1 57079U 23088AH  25199.52884540 -.00001217  00000-0 -75030-4 0  9993
2 57079  42.9987 287.0199 0000998 272.4086  87.6642 15.02534007114387
Source of the keplerian elements: AFSPC